Regional Weather Roundup
Issued by NWS Bismarck, ND

Home | Current Version | Previous Version | Text Only | Print | Product List | Glossary On
Versions: 1 2 3 4 5 6 7 8 9 10 11 12 13 14 15 16 17 18 19 20 21 22 23 24 25 26 27 28 29 30 31 32 33 34 35 36 37 38 39 40 41 42 43 44 45 46 47 48 49 50
000
ASUS43 KBIS 251259
RWRBIS

NWR BROADCAST TEXT
NATIONAL WEATHER SERVICE BISMARCK ND
800 AM CDT FRI JUL 25 2014

NOTE: "FAIR" INDICATES FEW OR NO CLOUDS BELOW 12,000 FEET WITH NO
SIGNIFICANT WEATHER AND/OR OBSTRUCTIONS TO VISIBILITY.


CITY           SKY/WX    TMP DP  RH WIND       PRES   REMARKS
WILLISTON      SUNNY     57  51  80 W12       29.87F
MINOT          SUNNY     63  49  60 W9        29.82R
MINOT AFB      NOT AVBL
BISMARCK       MOSUNNY   69  64  84 NW9       29.82R
DICKINSON      NOT AVBL
GARRISON         N/A     61  55  81 NW9       29.84R
HETTINGER ARPT SUNNY     58  47  66 NW7       29.94R
JAMESTOWN      MOSUNNY   64  61  88 S7        29.75R
CARRINGTON     PTSUNNY   64  64 100 NW13G20   29.80R
CROSBY           N/A    N/A N/A N/A MISG        N/A
HARVEY         CLOUDY    66  66 100 W9        29.79R
HAZEN          FAIR      61  55  82 W7        29.86S
LINTON         CLOUDY    64  64 100 W9        29.82R
MANDAN         FAIR      66  64  94 NW13G18   29.84S
RUGBY          CLOUDY    64  64 100 W10       29.78R
TIOGA          FAIR      55  55 100 W7        29.90R
WATFORD CITY   FAIR      54  54 100 SW9       29.88S
$$

CITY           SKY/WX    TMP DP  RH WIND       PRES   REMARKS
GRAND FORKS    MOSUNNY   67  62  84 SW5       29.71R
GRAND FORKS AF NOT AVBL
DEVILS LAKE    CLOUDY    66  61  82 NW10      29.76R
FARGO          MOSUNNY   68  62  81 S10       29.72S
CAVALIER       FAIR      68  63  83 W10       29.72F
GRAFTON        FAIR      68  64  88 W7        29.74R
GWINNER        CLOUDY    64  64 100 SE6       29.75S
LANGDON        CLOUDY    66  64  94 W3        29.77S
$$

CITY           SKY/WX    TMP DP  RH WIND       PRES   REMARKS
ABERDEEN       PTSUNNY   68  65  90 CALM      29.74R
MOBRIDGE       PTSUNNY   67  65  93 NW13      29.80R
BUFFALO          N/A     57  45  64 W5        29.91R
RAPID CITY     SUNNY     63  40  42 NW12      29.98R
GLASGOW        SUNNY     56  37  49 SW8       29.88S
SIDNEY         SUNNY     61  45  55 W7        29.91S
WOLF POINT     SUNNY     52  47  83 NW3       29.90S
GLENDIVE       SUNNY     54  46  76 S5        29.95S
MILES CITY     SUNNY     56  49  77 SE6       29.96S
BAKER          SUNNY     54  49  83 CALM      29.98R
$$

CITY           SKY/WX    TMP DP  RH WIND       PRES   REMARKS
BILLINGS       SUNNY     61  36  39 SW6       30.01S
GREAT FALLS    CLEAR     57  36  45 SW26G37   29.94S
$$



USA.gov is the U.S. government's official web portal to all federal, state and local government web resources and services.